sat.trackr.live / text

‹ back to catalog

STARLINK-36725

NORAD 68285 · 2026-055Z

PAYLOAD ACTIVE UNKNOWN

§ Identity

Operator
Country
US
Launch date
2026-03-19
Launch site
AFETR
Launch vehicle
Mass (kg)
RCS (m²)

Purposes: comms

External: N2YO · Heavens-Above · Gunter

§ Orbital elements

Epoch: 2026-09-19T04:33:54.595872Z

Period
93.85 min
Inclination
53.1574°
Eccentricity
0.0001254
Mean motion
15.34416309 rev/d
Perigee alt
461.8 km
Apogee alt
463.5 km
Semi-major
6,840.8 km
B*
5.3152e-4
RAAN
137.8592°
Arg perigee
80.3784°
Mean anomaly
279.7361°
Rev number
2,959

§ Raw data

STARLINK-367251 68285U 26055Z   26262.19021523  .00017633  00000+0  53152-3 0  99962 68285  53.1574 137.8592 0001254  80.3784 279.7361 15.34416309 29599

JSON: /api/v1/satellites/68285 · /tle

For live sub-satellite position, see the globe view (requires WebGL).

§ Visibility from observer

Set your observer location to see the next 7 days of passes ≥ 10°. The values pass through the URL so the page stays shareable.

No JS? Fill the form by hand. The geolocation button needs JavaScript.